Погода в Широбокове

Россия / Ставропольский край     45°20′37″N   41°46′08″E
темп.,
°C
ветер,
м/с
пор.,
м/с
влажн.,
%
обл.,
%
осадки,
мм/ч
давл.,
гПа
погр.,
м
14 апреля, ср
ср1400:00+8с2599100 0.3 1019186
03:00+8зюз2399100 0.4 1018206
06:00+8зюз5997100 0.1 1018468
09:00+8зюз6890100 0.2 1019578
12:00+10з5782100 0.1 1018763
15:00+12зсз5672100 0.2 10181028
18:00+11сз2479100 0.1 1018211
21:00+8юз229097 0.1 101817
15 апреля, чт
чт1500:00+7ююз119193 0.0 101810
03:00+7ююз119112 0.0 101810
06:00+6ююв11885 0.0 101810
09:00+13ю11655 0.0 1018408
12:00+16сз3447100 0.0 10171277
15:00+17сз3446100 0.0 10161647
18:00+15с2263100 0.0 101715
21:00+12вюв116648 0.0 101810
16 апреля, пт
пт1600:00+11юв22699 0.0 101710
03:00+10ююв227391 0.0 101711
06:00+10юз1173100 0.0 101810
09:00+12сз3370100 0.0 1019339
12:00+17св3456100 0.0 10171139
15:00+19всв3650100 0.0 10151578
18:00+10сз469492 7.0 1019320
21:00+10ссв1393100 7.3 1021213
17 апреля, сб
сб1700:00+10з2494100 0.1 1020229
03:00+8зсз5997100 2.1 1021419
06:00+8зсз2597100 3.3 1022303
09:00+11зсз347350 3.5 1023802
12:00+13зсз3460100 0.0 10221327
15:00+14зюз3457100 0.0 10221502
18:00+12ююз347699 0.1 1022349
21:00+9ю2285100 0.1 102346
18 апреля, вс
вс1800:00+8в228550 0.0 102112
03:00+9в2483100 0.0 1021114
06:00+8в2487100 0.0 1021146
09:00+11вюв5783100 0.2 1019528
12:00+11в4889100 0.3 1018496
15:00+13всв468198 0.3 1017550
18:00+11вюв4893100 5.0 1018247
21:00+11вюв1494100 6.1 1018133